Starlink 31535

operational
NORAD ID: 59504 Int'l Des: 2024-071 Owner: SPXS Country: US Constellation: starlink
LEOCIRCULAR

Über Starlink 31535

Beschreibung wird geladen...

Live-Position

3D-Globus wird geladen...

Nächste Überflüge

Höhenverlauf

Altitude vs Time

uPlot chart will show altitude changes over time

Zweizeiliger Elementsatz

1 59504U 24071W 26061.61364313 .00000705 00000-0 35140-4 0 9998
2 59504 43.0036 27.4690 0000839 273.8123 86.2633 15.27576749107037
Epoch: 2. März 2026 • Age: 39 hours

Aktueller Status

Höhe 493.8 km
Geschwindigkeit 7.62 km/s
Subsatellitenpunkt -38.03°S, 133.18°W
Startdatum 13. Apr. 2024
Alter 1.8 years
Typ internet

Technische Details

Klassifizierung Payload
Masse 730.00 kg
Trockenmasse 700.00 kg
Gesamtmasse 730.00 kg
Länge 0.30 m
Durchmesser 4.10 m
Spannweite 29.00 m
Form Box + pan
Hersteller SPXS
Bus-Typ Starlink V2M
Phasenstatus In Orbit
Besitzer/Staat SPXS/US

Große Konstellationen

Loading constellations...